Regional Weather Roundup
Issued by NWS

Home | Current Version | Previous Version | Text Only | Print | Product List | Glossary Off
Versions: 1 2 3 4 5 6 7 8 9 10 11 12 13 14 15 16 17 18 19 20 21 22 23 24 25 26 27 28 29 30 31 32 33 34 35 36 37 38 39 40 41 42 43 44 45 46 47 48 49 50

000
ASUS43 KLOT 011306
RWRIL

ILLINOIS REGIONAL WEATHER ROUNDUP
NATIONAL WEATHER SERVICE CHICAGO/ROMEOVILLE IL
800 AM CDT MON SEP 01 2014

NOTE: "FAIR" INDICATES FEW OR NO CLOUDS BELOW 12,000 FEET WITH NO
SIGNIFICANT WEATHER AND/OR OBSTRUCTIONS TO VISIBILITY.

* THESE STATIONS ARE NOT UNDER NWS QUALITY CONTROL. THEY ALSO MAY NOT
  REPORT WEATHER SUCH AS PRECIPITATION OR FOG.

ILZ001-002-007-009-015-016-024-011400-
NORTHWEST ILLINOIS

CITY           SKY/WX    TMP DP  RH WIND       PRES   REMARKS
MOLINE         CLOUDY    67  64  90 N5        29.71F
STERLING*      CLOUDY    66  64  94 W3        29.75R
SAVANNA*       PTSUNNY   69  65  88 S9        29.74S
$$

ILZ003-004-008-010-011-017-018-011400-
NORTH CENTRAL ILLINOIS

CITY           SKY/WX    TMP DP  RH WIND       PRES   REMARKS
ROCKFORD       CLOUDY    72  69  90 S10       29.73R FOG
FREEPORT*      CLOUDY    65  63  93 SW3       29.76S
ROCHELLE*      CLOUDY    71  69  95 S7        29.73S
PERU*          CLOUDY    71  69  90 S12       29.75S
$$

ILZ005-006-012>014-019>023-011400-
NORTHEAST ILLINOIS

CITY           SKY/WX    TMP DP  RH WIND       PRES   REMARKS
CHICAGO-OHARE  CLOUDY    74  68  81 S14       29.74F
CHICAGO-MIDWAY CLOUDY    76  72  87 S17G23    29.76F
AURORA         PTSUNNY   74  70  87 S14       29.74F FOG
LANSING*         N/A    N/A N/A N/A MISG        N/A
JOLIET*        PTSUNNY   74  70  87 S12G20    29.77F
WAUKEGAN       MOSUNNY   73  70  90 S13       29.71F
DUPAGE AIRPORT CLOUDY    74  70  87 S18G29    29.74F
KANKAKEE*      CLOUDY    74  72  95 S13       29.81F FOG
WHEELING       CLOUDY    76  70  82 S14       29.75F
MORRIS*        PTSUNNY   74  74  98 S10       29.75F FOG
ROMEOVILLE*    CLOUDY    74  72  94 S10G17    29.76F
NORTHERLY ISL    N/A     75  69  81 S13         N/A
$$

LMZ740>746-011400-
SOUTHERN LAKE MICHIGAN

STATION/POSITION SKY/WX   TEMP    WIND        PRES    VSBY  WAVE
                          AIR SEA DIR/SP/G                  HT/PER
                          (F)     (DEG/KT/KT) (MB)    (MI)  (FT/S)
SOUTHERN BUOY              72 69  170/ 17/ 21 1006.8F         3/ 4
WAUKEGAN HARBOR            71     170/ 16/ 18   N/A
HARRISON CRIB              73     180/ 20/ 22   N/A
BURNHAM HARBOR             75     190/ 16/ 17   N/A
CALUMET HARBOR             74     180/ 12/ 16 1007.0F
MICHIGAN CITY              73     170/ 14/ 18   N/A
MICHIGAN CITY 6N           74 72  180/ 14/ 17   N/A           2/ 3
ST. JOSEPH                 73 72  170/ 16/ 19   N/A           2/ 3
$$

ILZ025>027-034>036-040-047-049-050-058-095>099-011400-
WEST-CENTRAL ILLINOIS

CITY           SKY/WX    TMP DP  RH WIND       PRES   REMARKS
QUINCY         CLOUDY    67  64  90 S7        29.74F
GALESBURG*     DRIZZLE   67  67  97 S7        29.72F
MACOMB*        CLOUDY    69  65  87 S10       29.76F
JACKSONVILLE*  CLOUDY    74  65  75 S18G25    29.76F
PITTSFIELD*    CLOUDY    70  62  77 S21G37    29.69F
$$

ILZ028>032-037-038-041>044-048-051>054-059>061-011400-
CENTRAL ILLINOIS

CITY           SKY/WX    TMP DP  RH WIND       PRES   REMARKS
PONTIAC        CLOUDY    75  73  94 S12G17    29.79F FOG
DECATUR        CLOUDY    75  71  87 S20G26    29.85F
PEORIA         CLOUDY    75  70  84 S16G22    29.75F
LACON*         CLOUDY    72  69  91 SW8       29.75S
LINCOLN*       CLOUDY    75  72  90 S8        29.79S FOG
SPRINGFIELD    CLOUDY    75  71  87 SW14G23   29.83F
TAYLORVILLE    CLOUDY    72  72 100 SW13G20   29.86F FOG
$$

ILZ033-039-045-046-055>057-062-063-011400-
EAST-CENTRAL ILLINOIS

CITY           SKY/WX    TMP DP  RH WIND       PRES   REMARKS
CHAMPAIGN      CLOUDY    74  72  93 S14G24    29.85F
DANVILLE*      CLOUDY    73  71  95 S12G20    29.84F FOG
RANTOUL*       CLOUDY    76  71  85 S12G18    29.85F HAZE
MATTOON        CLOUDY    75  71  87 S13       29.88F
PARIS*         CLOUDY    75  73  92 S13       29.90F
$$

ILZ079-100>102-011400-
SOUTHWEST ILLINOIS

CITY           SKY/WX    TMP DP  RH WIND       PRES   REMARKS
BELLEVILLE     PTSUNNY   75  75 100 VRB5      29.91S
CAHOKIA*       LGT RAIN  77  72  84 W8        29.92R
SPARTA*        PTSUNNY   75  72  89 SW9G16    29.95S
$$

ILZ064>066-069>071-074>076-080>082-084>086-088>090-092>094-011400-
SOUTH-CENTRAL ILLINOIS

CITY           SKY/WX    TMP DP  RH WIND       PRES   REMARKS
CARBONDALE     MOSUNNY   76  71  85 SW15G22   29.96R
CAIRO*         CLOUDY    79  74  85 SW12      30.00S HX  83
EFFINGHAM*     CLOUDY    75  70  83 SW13G18   29.90F
MARION         MOSUNNY   77  73  88 SW12      29.98R
MT. VERNON     PTSUNNY   75  70  83 SW14      29.94S
CENTRALIA*     MOSUNNY   75  70  83 SW12      29.93S
SALEM*         PTSUNNY   77  74  88 SW13G21   29.93S
METROPOLIS*    CLOUDY    77  76  95 SW7       30.00S
$$

ILZ067-068-072-073-078-083-087-091-011400-
SOUTHEAST ILLINOIS

CITY           SKY/WX    TMP DP  RH WIND       PRES   REMARKS
LAWRENCEVILLE  CLOUDY    76  73  91 SW16G22   29.94F
FLORA*         MOSUNNY   74  72  93 S10       29.93F
FAIRFIELD*     MOSUNNY   77  75  94 S6        29.95R
HARRISBURG*    MOSUNNY   77  73  90 S12G20    29.99R
ROBINSON*      CLOUDY    76  74  92 SW14G20   29.94S
CARMI*         MOSUNNY   77  74  91 S9G17     29.96S
$$

ABBREVIATIONS USED IN REMARKS
   TC - TEMPERATURE IN CELSIUS
  WCI - WIND CHILL INDEX
   HX - HEAT INDEX
  VSB - VISIBILITY
$$



USA.gov is the U.S. government's official web portal to all federal, state and local government web resources and services.